Location: Azul
(36.7830°S, 59.8500°W)
Time: 04:24:52
(UTC-03:00)

ISS - Pass Details

Date: 29 April 2017
Orbit: 401 x 409 km, 51.6° (Epoch: 29 April)

Event Time Altitude Azimuth Distance (km) Brightness Sun altitude
Rises 20:19:54 0° 283° (WNW) 2,340 1.3 -25.3°
Reaches altitude 10° 20:22:13 10° 269° (W) 1,486 0.1 -25.8°
Enters shadow 20:24:15 23° 235° (SW) 945 -1.5 -26.2°
